TimeEST,TemperatureF,Dew PointF,Humidity,Sea Level PressureIn,VisibilityMPH,Wind Direction,Wind SpeedMPH,Gust SpeedMPH,PrecipitationIn,Events,Conditions,WindDirDegrees,DateUTC
12:53 AM,62.1,57.9,86,30.12,10.0,NE,10.4,-,N/A,,Clear,40,2012-11-19 05:53:00
1:53 AM,60.1,57.0,90,30.12,10.0,NE,10.4,-,N/A,,Clear,40,2012-11-19 06:53:00
2:53 AM,60.1,55.9,86,30.11,10.0,NE,10.4,-,N/A,,Clear,40,2012-11-19 07:53:00
3:53 AM,59.0,55.9,90,30.12,10.0,NE,8.1,-,N/A,,Clear,40,2012-11-19 08:53:00
4:53 AM,59.0,55.9,90,30.12,10.0,NNE,9.2,-,N/A,,Clear,30,2012-11-19 09:53:00
5:53 AM,57.9,55.0,90,30.13,10.0,NNE,8.1,-,N/A,,Clear,20,2012-11-19 10:53:00
6:53 AM,57.0,55.0,93,30.13,10.0,NNE,8.1,-,N/A,,Clear,20,2012-11-19 11:53:00
7:53 AM,59.0,55.0,87,30.14,10.0,NNE,10.4,-,N/A,,Clear,20,2012-11-19 12:53:00
8:53 AM,64.0,55.0,73,30.14,10.0,NNE,10.4,-,N/A,,Clear,30,2012-11-19 13:53:00
9:53 AM,66.9,55.0,66,30.15,10.0,NNE,9.2,-,N/A,,Clear,30,2012-11-19 14:53:00
10:53 AM,71.1,55.9,59,30.14,10.0,NE,5.8,-,N/A,,Clear,40,2012-11-19 15:53:00
11:53 AM,73.9,52.0,46,30.12,10.0,North,8.1,-,N/A,,Clear,10,2012-11-19 16:53:00
12:53 PM,75.9,51.1,42,30.08,10.0,North,6.9,-,N/A,,Clear,350,2012-11-19 17:53:00
1:53 PM,75.9,54.0,46,30.05,10.0,NW,6.9,-,N/A,,Clear,320,2012-11-19 18:53:00
2:53 PM,73.0,57.0,57,30.04,10.0,WNW,10.4,-,N/A,,Clear,300,2012-11-19 19:53:00
3:53 PM,73.0,57.0,57,30.04,10.0,NW,10.4,-,N/A,,Clear,310,2012-11-19 20:53:00
4:53 PM,70.0,61.0,73,30.04,10.0,NW,11.5,19.6,N/A,,Clear,310,2012-11-19 21:53:00
5:53 PM,68.0,61.0,78,30.05,10.0,NNW,4.6,-,N/A,,Clear,330,2012-11-19 22:53:00
6:53 PM,66.9,57.9,73,30.06,10.0,NNE,6.9,-,N/A,,Clear,20,2012-11-19 23:53:00
7:53 PM,61.0,57.0,87,30.07,10.0,ENE,10.4,-,N/A,,Clear,60,2012-11-20 00:53:00
8:53 PM,59.0,55.9,90,30.09,9.0,NE,8.1,-,N/A,,Clear,40,2012-11-20 01:53:00
9:53 PM,59.0,55.9,90,30.09,9.0,NNE,6.9,-,N/A,,Partly Cloudy,30,2012-11-20 02:53:00
10:23 PM,59.0,55.4,88,30.09,9.0,North,4.6,-,N/A,,Mostly Cloudy,10,2012-11-20 03:23:00
10:53 PM,60.1,55.9,86,30.09,10.0,North,10.4,-,N/A,,Overcast,10,2012-11-20 03:53:00
11:53 PM,60.1,55.9,86,30.07,10.0,North,4.6,-,N/A,,Overcast,10,2012-11-20 04:53:00